Showing default

HULIANWANG DIGUI-185, 100210

Orbit data source: Space-Track

HULIANWANG DIGUI-185, 100210 is a payload satellite owned by Zhongguo Xingwang (CN) in LEO that was launched on Tue, 04 Aug 2026 UTC launched from the Wenchang Satellite Launch Center (WSC). Payload-class satellites include a variety of spacecraft equipped with specific instruments for various scientific and technological missions. These include communications satellites like Starlink; space stations such as the ISS; scientific satellites like the Hubble; Earth observation satellites from companies like Planet Labs, Umbra, and HawkEye 360; GPS; miniature CubeSats for education and research; and military/defense satellites.

Loading next visibility...
Identifier
100210, 2026-176H
Orbit
LEO
Country
Flag of CNCN / PRC
Related business
Manufacturer
CAST?
Mission
Operational spacecraft
Bus & Motor
XINGWANG C, Unknown motor
Mass
~700 kg wet, ~700 kg dry
Launch date (UTC)
2026-08-04 (1 month ago)
Launch vehicle
Unknown
Launch site
Wenchang Satellite Launch Center (WSC)
Object type
Payload
Rocket body
Debris
Shape & HBR
BOX + 2 PAN, 5.0 m
Radar Cross Section
Large (>1 m²)

Expand to show TLE details & history
Last TLE update: 7 hours ago

TLE from 7 hours ago
0 HULIANWANG DIGUI-185
1 A0210U 26176H   26249.60285346 -.00000076  00000-0  10453-3 0  9992
2 A0210  49.9942 273.6120 0000098 326.6110  33.4756 13.29327066  4459
Epoch: 2026-09-06T14:28Z
TLE epoch observation values (Epoch: 2026-09-06T14:28:06.538Z)
Latitude
-0.00002°
Longitude
70.88913°
Altitude
1,149.746 km
Speed
7.279 km/s
True Right ascension
18h 14m 26s
True Declination
0° 00' 00"
Sunlit
Object was in daylight at epoch
Visualization orbit readout
Latitude
Unknown
Longitude
Unknown
Altitude
Unknown
Speed
Unknown
Apparent Right ascension
Unknown
Apparent Declination
Unknown
Sunlit
N/A
Visualization observer readout
Local Sidereal Time
13:18:21
Azimuth
Unknown
Elevation
Unknown
Doppler factor
Unknown
Orbital elements
Apogee altitude
1,150.083 km
Perigee altitude
1,149.935 km
Semi-major axis
7,528.146 km
Eccentricity
0.00001
Inclination
49.9942°
RAAN
273.612°
Arg. of periapsis
326.611°
True anomaly
33.47622°
Mean anomaly
33.4756°
Eccentric anomaly
33.47591°
Mean motion
3.32285 °/min
Orbital period
108.34 mins
BSTAR
0.00010453
Loading maneuver chart data...
Computing Atmospheric mass density...
Loading historical data...
Loading historical data...
Loading historical data...
Loading historical data...
Loading historical data...
Loading historical data...
Loading historical data...

Documentation

Showing up to 5 results
|